Погода в Магнитогорске

Хотите узнать прогноз погоды в Магнитогорске? Тогда Вам сюда: Погода в Магнитогорске

Поиск расширенной информации на нашем сайте:

Полезная информация:

Новости сайта



14.11.2019
Обновлён Долгосрочный прогноз погоды по России и другим странам хСССР на ноябрь-декабрь 2019 года.
Опубликованы прогностические карты: Предварительный прогноз на декабрь 2019 года, Предварительный прогноз на январь 2020 года, Предварительная схема синоптических процессов на декабрь 2019 г..

11.11.2019
Обновлены Долгосрочный прогноз погоды по России и другим странам хСССР на ноябрь-декабрь 2019 года и Предварительный прогноз на зиму 2019/2020 годов

04.11.2019
Опубликован Долгосрочный прогноз погоды по России и другим странам хСССР на ноябрь 2019 года
Сравнение прогнозируемой аномалии приземной температуры воздуха на ноябрь 2019 года по разным моделям
Предварительный прогноз на зиму 2019/2020 года




Погода в Магнитогорске - сегодня

Время (UTC), дата Ветер
(°,м/с) 
Видим.   Явления Облачность Т
(°С)
Тd
(°С)
f(%) Тe
(°С)
Pmin
(гПа)
dP
(гПа)
Po
(мм)
O2
(г/м3)
Тmin Tmax R s Состояние
почвы
00 20.11.19 030 (СВ) 10 км    ясно 
-21.5 -25.8 68 -27  1043.8  1.1  743  327           
03 20.11.19 010 (С) 20000 м    ясно 
-22.3 -25.9 73 -27  1045.6  1.6  744  328  -22.6      14  равномерный
сухой снег
100% 
06 20.11.19 010 (С) 20000 м    4/0 верхняя 
[Ci fib]
-20.4 -24.8 68 -27  1046.3  745  326           
09 20.11.19 350 (С) 20000 м    6/0 верхняя 
[Ci fib]
-17.7 -22.9 64 -20  1046.1  0.4  746  323           
12 20.11.19 360 (С) 20000 м    3/0 верхняя 
[Ci fib]
-16.9 -21.2 69 -19  1046.8  0.8  746  322           
15 20.11.19 350 (С) 10 км    ясно 
-15.8 -20.8 65 -21  1047.3  0.7  747  321    -15.7       
18 20.11.19 350 (С) 10 км    ясно 
-15.8 -20.8 65 -16  1047.3  0.9  747  321           
21 20.11.19 330 (СЗ) 10 км    ясно 
-17.9 -21.8 71 -20  1048.6  0.1  747  324           
00 21.11.19 220 (ЮЗ) 10 км    4/0 верхняя 
[Ci fib]
-21.3 -23.8 80 -22  1049  -0.3  747  328           
03 21.11.19 тихо ()   10 км    6/0 средняя 
[Ac trans]
-23.1 -26 77 -23  1048.7  -0.6  747  330  -23.5      14  равномерный
сухой снег
100% 
06 21.11.19 190 (Ю) 20000 м    ясно 
-20.6 -23.8 75 -21  1048  -0.2  746  327           
09 21.11.19 тихо ()   20000 м    ясно 
-15.4 -21.2 61 -15  1045.8  -1  746  320           
12 21.11.19 тихо ()   20000 м    ясно 
-16.5 -21.3 66 -17  1044.9  -1.1  745  321           
15 21.11.19 тихо ()   10 км    ясно 
-21 -23.9 77 -21  1044.6  -1.1  744  326    -14.4       
18 21.11.19 100 (В) 10 км    ясно 
-20.1 -23.5 74 -20  1043.8  -0.6  743  325           
21 21.11.19 тихо ()   10 км    ясно 
-16 -20.2 70 -16  1041.5  -1.4  742  319           
00 22.11.19 270 (З) 10 км    ясно 
-7.7 -15.8 52 -9  1038.8  -0.9  742  309           
03 22.11.19 350 (С) 10 км    3/0 средняя 
[Ac trans]
-9.4 -13 75 -9  1038.8  -0.4  741  311  -21.8      14  равномерный
сухой снег
100% 
06 22.11.19 290 (З) 20000 м    4/0 средняя 
[Ac trans]
-5.1 -10.3 67 -6  1038.1  0.2  742  305           
09 22.11.19 280 (З) 20000 м    8/0 средняя 
[Ac trans]
-2.2 -8.8 61 -2  1037.2  -0.4  741  302           
12 22.11.19 270 (З) 20000 м    8/0 средняя 
[Ac trans]
-4.5 -8.7 72 -4  1037.2  -0.4  741  304           
15 22.11.19 тихо ()   10 км    10/0 средняя 
[Ac As]
-4.9 -8.2 78 -5  1037.2  0.1  741  305    -0.8       
18 22.11.19 тихо ()   10 км    10/0 средняя 
[Ac As]
-3.1 -7 74 -3  1036.6  -0.2  741  303           
21 22.11.19 тихо ()   10 км    10/0 средняя 
[Ac As]
-4 -6.8 81 -4  1037.3  0.5  741  304           
00 23.11.19 тихо ()   10 км    10/0 средняя 
[Ac As]
-2.8 -5.9 79 -3  1036.6  -0.4  741  302           
Время (UTC), дата Ветер
(°,м/с) 
Видим.   Явления Облачность Т
(°С)
Тd
(°С)
f(%) Тe
(°С)
Pmin
(гПа)
dP
(гПа)
Po
(мм)
O2
(г/м3)
Тmin Tmax R s Состояние
почвы

Для получения пояснительной информации подведите курсор к названию столбца.

ПОГОДА в Магнитогорске - архив

Всё, что Вы хотите узнать о погоде в Магнитогорске - удобно и подробно!

Выберите нужную дату (начиная с 1 января 2019* года) и нажмите кнопку "Найти".
Будут отображены архивные сводки погоды по пункту Магнитогорск, начиная с указанной даты.


Отображать данные в формате CSV (для использования в таблицах Excel)


Внимание! Наш архив погоды предназначен исключительно для личного некоммерческого использования в познавательных целях. Если Вам необходимы официальные справки о состоянии погоды (для производственных, юридических, коммерческих и т.п. целей), обращайтесь в органы Росгидромета.

*Примечание: данная дата относится к архиву по метеостанциям СССР (Россия, СНГ, Балтия).
Архив по метеостанциям Зарубежной Европы и Азии (кроме Китая) хранится 10 дней, по другим регионам земного шара (Китай, Африка, Америка, Австралия, Океания) - 1 день.

Магнитогорск - район местоположения метеостанции


Название, широта, долгота, высота метеостанции:
Магнитогорск 53.3°ш. 59.1°д. 384 м над ур. моря [Российская Федерация]

Дополнительная информация

В oтличие oт бoльшинства пoгoдных сайтoв мы публикуем пoдрoбную метеoинфoрмацию в детальнoм прoфессиoнальнoм фoрмате.

Характеристики температуры и влажнoсти вoздуха измеряются на высoте 2 м в тени вдали oт зданий и деревьев.
Скoрoсть ветра измеряется на высoте 10 м (на урoвне рoста челoвека скoрoсть ветра ниже в 1.5-2 раза). Если метеoстанция нахoдится в гoрoде или в лесу, тo скoрoсть ветра занижена на 2-4 м/с пo сравнению с oткрытым местoм. Скoрoсть ветра над акватoриями крупных рек и oзёр, а также на вершинах хoлмoв на 2-5 м/с выше, чем в oбычных услoвиях.
Атмoсфернoе давление в разных тoчках местнoсти мoжет значительнo oтличаться oт давления на метеoстанции, в зависимoсти oт услoвий рельефа (при пoдъёме на 10 м давление пoнижается примернo на 1 мм рт.ст.).